Regional Weather Roundup
Issued by NWS Wakefield, VA

Home | Current Version | Previous Version | Text Only | Print | Product List | Glossary On
Versions: 1 2 3 4 5 6 7 8 9 10 11 12 13 14 15 16 17 18 19 20 21 22 23 24 25 26 27 28 29 30 31 32 33 34 35 36 37 38 39 40 41 42 43 44 45 46 47 48 49 50
000
ASUS41 KAKQ 231415
RWRAKQ

REGIONAL WEATHER ROUNDUP
NATIONAL WEATHER SERVICE WAKEFIELD VA
900 AM EST MON JAN 23 2017

Note: "fair" indicates few or no clouds below 12,000 feet with no
significant weather and/or obstructions to visibility. * = Denotes
station may not report precipitation (e.g., rain,snow,etc.),
thunder or fog.

VAZ042-051-052>054-056-231500-
NORTHERN VIRGINIA

CITY           SKY/WX    TMP DP  RH WIND       PRES   REMARKS
WASH NATIONAL  LGT RAIN  47  44  90 NE28G40   29.48F FOG
DULLES         LGT RAIN  45  41  86 NE26G39   29.48F FOG
FORT BELVOIR   LGT RAIN  46  44  91 NE8G22    29.46F FOG
QUANTICO       LGT RAIN  47  47 100 NE25G39   29.43F FOG
FREDERICKSBRG* DRIZZLE   48  48 100 NE24G33   29.39S
STAFFORD*      LGT RAIN  46  46 100 NE17G35   29.44F
WARRENTON      DRIZZLE   47  43  86 NE17G26   29.42F
CULPEPER*      LGT RAIN  47  46  96 NE10G18   29.43F
MANASSAS*      RAIN     N/A N/A N/A E21G32    29.46F
LEESBURG*      LGT RAIN  46  46 100 NE18G30   29.52S
WINCHESTER     DRIZZLE   41  41 100 NE9G18    29.52R
FRONT ROYAL*   CLOUDY    43  43 100 NE12G20   29.49R
LURAY*         RAIN      45  45 100 N21G30    29.43F
$$

VAZ048-049-060>072-079>083-231500-
CENTRAL AND SOUTH CENTRAL VIRGINIA

CITY           SKY/WX    TMP DP  RH WIND       PRES   REMARKS
RICHMOND       HVY RAIN  52  52 100 NE18G26   29.27F VSB 3/4
CHESTERFIELD*  CLOUDY    54  37  54 E7        29.29R
PETERSBURG*    LGT RAIN  54  52  94 E3        29.26F
HANOVER        HVY RAIN  50  49  96 NE13G20   29.32R VSB 1
TAPPAHANNOCK*  LGT RAIN  51  51 100 NE17G30   29.32F
QUINTON*       CLOUDY    52  52 100 E23G31    29.27F FOG
CHARLOTTSVILLE RAIN      47  45  93 NE30G37   29.33F FOG
GORDONSVILLE*  FOG       47  46  99 NE16G26   29.36F VSB 3/4
ORANGE*        HVY RAIN  46  46 100 N15G23    29.41R
LOUISA*        LGT RAIN  52  48  87 NE18G26   29.32F
BUMPASS*       CLOUDY    48  48 100 NE9G17    29.33S
FARMVILLE*     RAIN      50  50 100 N10       29.28F
CREWE*         CLOUDY    51  51 100 N3        29.26F
FORT PICKETT*  CLOUDY   N/A N/A N/A NE6       29.26S
CHASE CITY*    CLOUDY    51  50  95 E3        29.24S
CLARKSVILLE*   CLOUDY    52  52 100 CALM      29.23S
SOUTH HILL*    CLOUDY    52  52 100 SE3       29.30R
LAWRENCEVILLE* CLOUDY    53  52  97 E5        29.24S
EMPORIA*       LGT SNOW  52  52 100 E6        29.26R
$$

VAZ088>098-231500-
SOUTHEAST VIRGINIA

CITY           SKY/WX    TMP DP  RH WIND       PRES   REMARKS
NORFOLK        HVY RAIN  59  58  96 E15G23    29.27S FOG
VIRGINIA BEACH LGT RAIN  55  54  96 E15       29.27S VSB 1/8
NORFOLK NAVAL  CLOUDY    56  55  97 E12       29.29R FOG
WEST POINT*    CLOUDY    52  52  99 E21G35    29.29F
SALUDA*        CLOUDY    50  50 100 NE20G31   29.32S
NEWPORT NEWS   LGT RAIN  54  53  97 E20G29    29.28R FOG
LANGLEY AFB    FOG       54  54 100 E22G29    29.26S VSB 5/8
FORT EUSTIS    LGT RAIN  55  53  95 E8        29.26R FOG
WILLIAMSBURG*  CLOUDY    55  55 100 E12G28    29.29R
HR EXEC AP*    CLOUDY    61  57  88 E13G22    29.25S
FRANKLIN*      CLOUDY    58  57  98 E6        29.26S
US460-WAKEFLD  CLOUDY    56  55  97 VRB6      29.26R
$$

VAZ020-022-025-037-045-231500-
WEST CENTRAL AND SOUTHWEST VIRGINIA

CITY           SKY/WX    TMP DP  RH WIND       PRES   REMARKS
STAUNTON*      HVY RAIN  44  42  95 N13       29.40S
WAYNESBORO*    CLOUDY    44  43  96 N16G26    29.33F
HOT SPRINGS VA LGT RAIN  34  34 100 E20G31    29.29R VSB 1/2 WCI  22
LYNCHBURG      LGT RAIN  47  45  93 NE23G32   29.29S FOG
DANVILLE       CLOUDY    50  50 100 NE7       29.25R
SOUTH BOSTON*  CLOUDY    51  50  95 N5        29.25R
MARTINSVILLE   DRIZZLE   48  47  96 N6        29.28R
ROANOKE        LGT RAIN  48  46  93 VRB5      29.31R FOG
BLACKSBURG     RAIN      46  45  97 NE6       29.31R
DUBLIN*        RAIN      47  47 100 NE8       29.30R
MARION*        LGT RAIN  47  46  96 CALM      29.29R
HILLSVILLE*    LGT RAIN  44  44  99 NE12G21   29.24F
RICHLANDS*     RAIN      45  45  99 NE8G17    29.27R
WISE*          LGT RAIN  46  46 100 NE10G22   29.30R
ABINGDON*      RAIN      49  47  93 E8        29.25R
$$

MDZ021>025-VAZ099-100-231500-
SOUTHERN MARYLAND AND THE DELMARVA PENINSULA

CITY           SKY/WX    TMP DP  RH WIND       PRES   REMARKS
PATUXENT RIVER LGT RAIN  48  47  96 E21G36    29.41F FOG
BAY BRIDGE APT CLOUDY    45  43  93 E20G37    29.52S FOG
LEONARDTOWN    CLOUDY    46  45  93 NE12G23   29.44S
DOVER          CLOUDY    45  45 100 NE18G31   29.56S
GEORGETOWN     LGT RAIN  47  32  56 NE28G52   29.51F
EASTON         LGT RAIN  46  45  93 E23G41    29.54F
CAMBRIDGE      CLOUDY    45  45 100 NE17G30   29.46F
SALISBURY      CLOUDY    51  49  92 E24G37    29.44F
OCEAN CITY     LGT RAIN  49  48  97 E25G43    29.45F FOG
WALLOPS ISLAND LGT RAIN  51  51 100 NE29G40   29.40F FOG
ACCOMACK*      CLOUDY    53  51  95 E24G35    29.35F FOG
$$

NCZ012>017-030>032-231500-
NORTH CENTRAL AND EASTERN NORTH CAROLINA

CITY           SKY/WX    TMP DP  RH WIND       PRES   REMARKS
ROANOKE RAPIDS FOG       54  54 100 SE3       29.26R VSB 1/2
RALEIGH        PTSUNNY   53  50  89 SW16      29.25R
ELIZABETH CITY CLOUDY    59  58  96 E8        29.26S
AHOSKIE*         N/A     55  55  98 SE5       29.26S
EDENTON*       CLOUDY    60  58  93 S8        29.27S
CURRITUCK*     CLOUDY    59  59 100 E7        29.27S
KILL DEVIL HLS NOT AVBL
MANTEO         CLOUDY    58  58 100 SE7       29.28S
CAPE HATTERAS  PTSUNNY   62  55  77 SW14      29.31R HAZE
TARBORO*       NOT AVBL
GOLDSBORO      MOSUNNY   56  56 100 SW13      29.27R
WASHINGTON     CLOUDY    56  55  97 S6          N/A
GREENVILLE     CLOUDY    55  55 100 SW7       29.31R FOG
NEW BERN       CLOUDY    57  54  89 SW10G17   29.32R
WILMINGTON     SUNNY     55  50  83 SW9       29.33S
$$

VAZ048-231500-
ELSEWHERE

CITY           SKY/WX    TMP DP  RH WIND       PRES   REMARKS
HARRISBURG PA  LGT RAIN  42  40  92 E18       29.65F FOG
BALTIMORE      DRIZZLE   43  43 100 NE23G36   29.57R FOG
ANNAPOLIS      CLOUDY    46  42  86 NE17G30   29.53F FOG
ANDREWS AFB    LGT RAIN  45  43  93 NE29G41   29.45F FOG
PHILADELPHIA   LGT RAIN  41  36  81 E24G44    29.70R
HENDERSON NC   CLOUDY    51  50  98 S3        29.25R FOG
GREENSBORO     DRZL/FOG  50  50 100 W5        29.23R VSB 3/4
ROCKY MOUNT    CLOUDY    56  56 100 S12       29.26R
$$

VAZ100-231500-
MARINE

STATION/POSITION TIME  TEMP    WIND        PRES    WAVE   SWELL
                       AIR SEA DIR/SP/G            HT/PER HT/PER
                 (UTC) (F)     (DEG/KT/KT) (MB)    (FT/S) (FT/S)
CAPE MAY NJ      1324   45 44   50/ 12/ 28 1001.1
LEWES DE         1324   45 43   70/ 37/ 45  999.6
OCEAN-CITY-INLET 1324   49 43   90/ 19/ 32  997.8
WACHAPREAGUE VA  1324   51 49   50/ 21/ 25  993.8
THOMAS POINT MD  1300   46 40   70/ 31/ 35   N/A
GOOSES REEF MD   1350   45     100/ 25/ 33  997.7F
COVE POINT MD    1324   47      90/ 29/ 35  997.2
SOLOMONS ISLAND  1324   47 42   50/ 20/ 31   N/A
BISHOPS HEAD MD  1324   50 44   70/ 24/ 39  995.8
PINEY POINT MD   1324           80/ 18/ 24   N/A
POTOMAC MD       1350   48      80/ 23/ 27  993.6F
CAMBRIDGE MD     1324   47 43   60/ 25/ 36  997.1
LEWISETTA VA     1324   48 44   80/ 19/ 29  994.2
RAPPAHANNOCK LGT 1324           70/ 32/ 36  993.2
STINGRAY PT      1340   48      80/ 21/ 25  993.4F
YORK RVR RNG VA  1324   49      90/ 25/ 28  990.6
YORKTOWN VA      1324   49 44   70/ 23/ 26  991.1
JAMESTOWN VA     1350   53      90/ 16/ 23   N/A
DOMINION TERM VA 1324   51      80/ 13/ 18  991.3
CHES BAY BRIDGE  1324   50 46   80/ 20/ 23  991.0
CAPE HENRY VA    1324   53      90/ 19/ 23   N/A
WILLOUBY STN VA  1324   49     100/ 15/ 17  992.0
S CRANEY ISL VA  1324   58     110/ 18/ 23  990.6
CAPE HENRY BUOY  1342      48                N/A     5/ 9   2/11
OFFSHORE WE BUOY 1321      48                N/A     6/ 8   2/11
64NM E OF VA BCH 1250   61 56  100/ 16/ 19  993.0    6/13   3/13
DUCK PIER NC     1324   56 46   80/ 15/ 18  990.7
44100 DUCK FRF   1305      49                N/A     5/13   3/13
44056 DUCK FRF   1330      46                N/A     4/14   2/14
OREGON INLET NC  1324   54 50  180/ 11/ 13  991.3
HATTERAS NC      1324   61 56  220/ 10/ 13  991.7
DIAMOND SHLS NC  1250   70 72  240/ 23/ 29  991.4    9/ 7   3/11
CAPE LOOKOUT NC  1300   59     230/ 12/ 16  992.0R
$$



USA.gov is the U.S. government's official web portal to all federal, state and local government web resources and services.